User: anonymous   Login
Location: Unspecified
(43.4680°N, 87.1740°E)
Time: 13:08:01
(UTC+00:00)
Language:

Cosmos 1898 Rocket - Orbit

View from above orbital plane
View from above orbital plane
View from above satellite
View from above satellite

Ground track
Ground track

The orbit data is extracted from the following two-line orbital elements,

1 18586U 87098B   21173.85235039  .00000007  00000-0  11356-4 0  9996
2 18586  74.0065 114.2560 0021238 187.4185 172.6658 14.36956102757709
Epoch (UTC): 22 June 2021 20:27:23
Eccentricity: 0.0021238
inclination: 74.0065°
perigee height: 753 km
apogee height: 784 km
right ascension of ascending node: 114.2560°
argument of perigee: 187.4185°
revolutions per day: 14.36956102
mean anomaly at epoch: 172.6658°
orbit number at epoch: 75770

The dashed part of the orbit path shows where the satellite is in the earth's shadow,  

DLR